Lander, WY

2:17 AM MDT on September 22, 2017 (GMT -0600)
Hunt

Weather History for KLND - November, 2013

Change the Weather History Date:

Monday, November 11, 2013

  Actual Average Record
Temperature  
Mean Temperature 42 °F 34 °F  
Max Temperature 56 °F 46 °F 72 °F (1894)
Min Temperature 28 °F 22 °F -19 °F (1919)
Degree Days  
Heating Degree Days 23 31  
Month to date heating degree days 295 313  
Since 1 July heating degree days 1240 1174  
Cooling Degree Days 0 0  
Month to date cooling degree days 0 0  
Year to date cooling degree days 743 472  
Moisture  
Dew Point 26 °F    
Average Humidity 59    
Maximum Humidity 82    
Minimum Humidity 35    
Precipitation  
Precipitation 0.00 in 0.02 in 0.97 in (1938)
Month to date precipitation 0.00 0.34  
Year to date precipitation 14.72 11.56  
Snow  
Snow 0.00 in 0.40 in - ()
Month to date snowfall 0.0 4.5  
Since 1 July snowfall 26.0 17.0  
Since 1 September snowfall 26.0 17.0  
Snow Depth 0.00 in    
Sea Level Pressure  
Sea Level Pressure 30.31 in    
Wind  
Wind Speed 6 mph (NNW)    
Max Wind Speed 13 mph    
Max Gust Speed 14 mph    
Visibility 10 miles    
Events      
T = Trace of Precipitation, MM = Missing Value Source: NWS Daily Summary

Daily Weather History Graph

Daily Weather History Graph

Search for Another Location

Airport or City:

Trip Planner

Search our weather history database for the weather conditions in past years. The results will help you decide how hot, cold, wet, or windy it might be!

Date:

Astronomy

Nov. 11, 2013 Rise Set
Actual Time 7:02 AM MST 4:55 PM MST
Civil Twilight 6:31 AM MST 5:25 PM MST
Nautical Twilight 5:57 AM MST 5:59 PM MST
Astronomical Twilight 5:24 AM MST 6:32 PM MST
Moon 1:45 PM MST (11/11) 12:42 AM MST (11/11)
Length of Visible Light 10h 53m
Length of Day
9h 53m
Waxing Gibbous, 67% of the Moon is Illuminated
Nov 11
Waxing Gibbous
Nov 17
Full
Nov 25
Last Quarter
Dec 2
New
Dec 9
First Quarter

Hourly Weather History & Observations

Time (MST) Temp. Windchill Dew Point Humidity Pressure Visibility Wind Dir Wind Speed Gust Speed Precip Events Conditions
12:53 AM 34.0 °F 26.6 °F 24.1 °F 67% 30.14 in 10.0 mi WNW 9.2 mph - N/A   Clear
1:53 AM 42.1 °F 38.4 °F 21.9 °F 45% 30.10 in 10.0 mi SSW 5.8 mph - N/A   Clear
2:53 AM 35.1 °F 30.1 °F 23.0 °F 61% 30.13 in 10.0 mi East 5.8 mph - N/A   Clear
3:53 AM 35.1 °F - 24.1 °F 64% 30.14 in 10.0 mi Calm Calm - N/A   Clear
4:53 AM 37.9 °F 35.5 °F 23.0 °F 55% 30.16 in 10.0 mi South 3.5 mph - N/A   Clear
5:53 AM 36.0 °F 33.3 °F 23.0 °F 59% 30.19 in 10.0 mi NW 3.5 mph - N/A   Clear
6:53 AM 37.9 °F 33.5 °F 23.0 °F 55% 30.20 in 10.0 mi WNW 5.8 mph - N/A   Clear
7:53 AM 39.0 °F - 23.0 °F 53% 30.23 in 10.0 mi Calm Calm - N/A   Clear
8:53 AM 43.0 °F 36.8 °F 24.1 °F 47% 30.26 in 10.0 mi WSW 11.5 mph - N/A   Clear
9:53 AM 37.9 °F 34.4 °F 26.1 °F 62% 30.28 in 10.0 mi East 4.6 mph - N/A   Clear
10:53 AM 48.9 °F - 30.9 °F 50% 30.25 in 10.0 mi ESE 5.8 mph - N/A   Clear
11:53 AM 54.0 °F - 30.9 °F 41% 30.23 in 10.0 mi NNE 11.5 mph - N/A   Clear
12:53 PM 52.0 °F - 28.9 °F 41% 30.27 in 10.0 mi NNE 9.2 mph - N/A   Clear
1:53 PM 53.1 °F - 27.0 °F 37% 30.24 in 10.0 mi NNE 5.8 mph - N/A   Clear
2:53 PM 53.1 °F - 26.1 °F 35% 30.27 in 10.0 mi NE 3.5 mph - N/A   Clear
3:53 PM 52.0 °F - 26.1 °F 37% 30.31 in 10.0 mi NE 4.6 mph - N/A   Clear
4:53 PM 45.0 °F 40.6 °F 28.0 °F 52% 30.38 in 10.0 mi North 8.1 mph - N/A   Clear
5:53 PM 39.9 °F 34.5 °F 28.9 °F 65% 30.46 in 10.0 mi NNW 8.1 mph - N/A   Clear
6:53 PM 37.0 °F 31.6 °F 28.9 °F 73% 30.50 in 10.0 mi NNW 6.9 mph - N/A   Clear
7:53 PM 34.0 °F 28.0 °F 28.0 °F 79% 30.53 in 10.0 mi West 6.9 mph - N/A   Clear
8:53 PM 34.0 °F 27.2 °F 27.0 °F 75% 30.53 in 10.0 mi West 8.1 mph - N/A   Clear
9:53 PM 32.0 °F - 27.0 °F 82% 30.58 in 10.0 mi Calm Calm - N/A   Clear
10:53 PM 33.1 °F 30.0 °F 27.0 °F 78% 30.54 in 10.0 mi WSW 3.5 mph - N/A   Clear
11:53 PM 30.9 °F - 26.1 °F 82% 30.52 in 10.0 mi Calm Calm - N/A   Clear